Weather History for KFDR - January, 2013

Change the Weather History Date:

Wednesday, January 23, 2013

  Actual Average (KLTS) Record (KLTS)
Temperature  
Mean Temperature 52 °F -  
Max Temperature 68 °F 50 °F 69 °F (1997)
Min Temperature 35 °F 27 °F 13 °F (2008)
Degree Days  
Heating Degree Days 14    
Growing Degree Days 2 (Base 50)    
Moisture  
Dew Point 41 °F    
Average Humidity 77    
Maximum Humidity 93    
Minimum Humidity 47    
Precipitation  
Precipitation 0.00 in - - ()
Sea Level Pressure  
Sea Level Pressure 30.13 in    
Wind  
Wind Speed 7 mph (SE)    
Max Wind Speed 15 mph    
Max Gust Speed -    
Visibility 8 miles    
Events Fog    
Averages and records for this station are not official NWS values.
T = Trace of Precipitation, MM = Missing Value Source: NWS Daily Summary

Daily Weather History Graph

Daily Weather History Graph

Search for Another Location

Airport or City:

Trip Planner

Search our weather history database for the weather conditions in past years. The results will help you decide how hot, cold, wet, or windy it might be!

Date:

Astronomy

Jan. 23, 2013 Rise Set
Actual Time 7:38 AM CST 5:57 PM CST
Civil Twilight 7:12 AM CST 6:24 PM CST
Nautical Twilight 6:41 AM CST 6:54 PM CST
Astronomical Twilight 6:11 AM CST 7:24 PM CST
Moon 3:10 PM CST (1/23) 4:49 AM CST (1/23)
Length of Visible Light 11h 12m
Length of Day
10h 18m
Waxing Gibbous, 89% of the Moon is Illuminated
Jan 23
Waxing Gibbous
Jan 26
Full
Feb 3
Last Quarter
Feb 10
New
Feb 17
First Quarter

Hourly Weather History & Observations

Time (CST) Temp. Windchill Dew Point Humidity Pressure Visibility Wind Dir Wind Speed Gust Speed Precip Events Conditions
12:53 AM 39.9 °F 33.9 °F 34.0 °F 79% 30.15 in 10.0 mi NE 9.2 mph - N/A   Clear
1:53 AM 39.9 °F 34.5 °F 34.0 °F 79% 30.14 in 10.0 mi East 8.1 mph - N/A   Clear
2:53 AM 39.0 °F 32.3 °F 33.1 °F 79% 30.14 in 10.0 mi NE 10.4 mph - N/A   Clear
3:53 AM 37.9 °F 33.5 °F 33.1 °F 83% 30.14 in 10.0 mi East 5.8 mph - N/A   Clear
4:53 AM 37.0 °F 33.3 °F 33.1 °F 86% 30.14 in 10.0 mi East 4.6 mph - N/A   Clear
5:53 AM 36.0 °F 29.6 °F 33.1 °F 89% 30.15 in 10.0 mi NNE 8.1 mph - N/A   Clear
6:53 AM 35.1 °F - 32.0 °F 89% 30.16 in 6.0 mi Calm Calm - N/A   Clear
7:53 AM 35.1 °F - 32.0 °F 89% 30.17 in 5.0 mi Calm Calm - N/A   Clear
8:53 AM 41.0 °F 39.0 °F 37.0 °F 86% 30.18 in 10.0 mi NNE 3.5 mph - N/A   Clear
9:10 AM 41.0 °F - 37.4 °F 87% 30.18 in 8.0 mi Calm Calm - N/A   Scattered Clouds
9:53 AM 43.0 °F - 39.0 °F 86% 30.19 in 10.0 mi Calm Calm - N/A   Overcast
10:06 AM 44.6 °F 42.2 °F 42.8 °F 93% 30.19 in 1.8 mi WSW 4.6 mph - N/A   Overcast
10:16 AM 44.6 °F 41.4 °F 42.8 °F 93% 30.19 in 0.5 mi SW 5.8 mph - N/A Fog Fog
10:41 AM 44.6 °F 39.7 °F 42.8 °F 93% 30.20 in 1.5 mi SSW 9.2 mph - N/A   Overcast
10:53 AM 46.0 °F 40.6 °F 43.0 °F 89% 30.20 in 2.5 mi SW 11.5 mph - N/A   Overcast
11:00 AM 46.4 °F 42.4 °F 42.8 °F 87% 30.20 in 8.0 mi SW 8.1 mph - N/A   Overcast
11:53 AM 53.1 °F - 46.0 °F 77% 30.18 in 10.0 mi SW 10.4 mph - N/A   Scattered Clouds
12:53 PM 60.1 °F - 46.0 °F 60% 30.15 in 10.0 mi SW 6.9 mph - N/A   Clear
1:53 PM 64.9 °F - 48.9 °F 56% 30.11 in 10.0 mi South 10.4 mph - N/A   Clear
2:53 PM 66.0 °F - 48.9 °F 54% 30.09 in 10.0 mi South 6.9 mph - N/A   Clear
3:53 PM 68.0 °F - 48.9 °F 50% 30.08 in 10.0 mi South 9.2 mph - N/A   Clear
4:53 PM 68.0 °F - 46.9 °F 47% 30.05 in 10.0 mi South 15.0 mph - N/A   Clear
5:53 PM 62.1 °F - 46.0 °F 56% 30.05 in 10.0 mi South 6.9 mph - N/A   Clear
6:53 PM 55.0 °F - 44.1 °F 67% 30.08 in 10.0 mi Calm Calm - N/A   Clear
7:53 PM 53.1 °F - 44.1 °F 71% 30.09 in 10.0 mi NE 5.8 mph - N/A   Clear
8:53 PM 51.1 °F - 43.0 °F 74% 30.08 in 10.0 mi East 8.1 mph - N/A   Clear
9:53 PM 50.0 °F - 43.0 °F 77% 30.08 in 10.0 mi ESE 10.4 mph - N/A   Clear
10:53 PM 48.0 °F - 43.0 °F 83% 30.07 in 10.0 mi East 9.2 mph - N/A   Clear
11:53 PM 46.9 °F - 43.0 °F 86% 30.07 in 10.0 mi NE 9.2 mph - N/A   Clear